TimePDT,TemperatureF,Dew PointF,Humidity,Sea Level PressureIn,VisibilityMPH,Wind Direction,Wind SpeedMPH,Gust SpeedMPH,PrecipitationIn,Events,Conditions,WindDirDegrees,DateUTC
12:55 AM,64.9,44.1,47,29.95,10.0,NE,3.5,-,N/A,,Clear,40,2013-06-16 07:55:00
1:55 AM,66.0,43.0,43,29.94,10.0,West,12.7,-,N/A,,Clear,280,2013-06-16 08:55:00
2:55 AM,63.0,43.0,48,29.95,10.0,West,6.9,-,N/A,,Clear,280,2013-06-16 09:55:00
3:55 AM,62.1,44.1,52,29.96,10.0,WNW,9.2,-,N/A,,Clear,290,2013-06-16 10:55:00
4:55 AM,61.0,44.1,54,29.97,10.0,WNW,11.5,-,N/A,,Clear,300,2013-06-16 11:55:00
5:55 AM,60.1,44.1,55,29.99,10.0,WNW,11.5,-,N/A,,Clear,300,2013-06-16 12:55:00
6:55 AM,62.1,44.1,52,30.00,10.0,WNW,8.1,-,N/A,,Partly Cloudy,300,2013-06-16 13:55:00
7:55 AM,64.0,44.1,48,30.01,10.0,West,8.1,-,N/A,,Partly Cloudy,270,2013-06-16 14:55:00
8:55 AM,68.0,44.1,42,30.00,10.0,WNW,8.1,-,N/A,,Clear,290,2013-06-16 15:55:00
9:55 AM,72.0,42.1,34,29.99,10.0,WNW,6.9,-,N/A,,Clear,290,2013-06-16 16:55:00
10:55 AM,75.0,44.1,33,29.98,10.0,West,5.8,-,N/A,,Clear,280,2013-06-16 17:55:00
11:55 AM,79.0,36.0,21,29.96,10.0,Variable,3.5,-,N/A,,Clear,0,2013-06-16 18:55:00
12:55 PM,82.9,39.9,22,29.94,10.0,SSW,3.5,-,N/A,,Clear,210,2013-06-16 19:55:00
1:55 PM,84.0,35.1,17,29.92,10.0,Calm,Calm,-,N/A,,Clear,0,2013-06-16 20:55:00
2:55 PM,84.0,36.0,18,29.90,10.0,East,4.6,-,N/A,,Clear,90,2013-06-16 21:55:00
3:55 PM,84.0,37.9,19,29.90,10.0,East,4.6,-,N/A,,Clear,100,2013-06-16 22:55:00
4:55 PM,86.0,34.0,16,29.87,10.0,SE,5.8,-,N/A,,Clear,130,2013-06-16 23:55:00
5:55 PM,84.9,39.9,20,29.86,10.0,East,3.5,-,N/A,,Clear,90,2013-06-17 00:55:00
6:55 PM,84.0,37.0,19,29.86,10.0,South,4.6,-,N/A,,Clear,180,2013-06-17 01:55:00
7:55 PM,84.9,39.0,20,29.87,10.0,WSW,4.6,-,N/A,,Clear,250,2013-06-17 02:55:00
8:38 PM,78.8,46.4,32,29.90,10.0,NW,18.4,-,N/A,,Clear,320,2013-06-17 03:38:00
8:55 PM,77.0,48.0,36,29.88,10.0,NW,20.7,28.8,N/A,,Clear,320,2013-06-17 03:55:00
9:55 PM,73.9,48.0,40,29.92,10.0,NW,17.3,25.3,N/A,,Clear,320,2013-06-17 04:55:00
10:55 PM,72.0,46.9,41,29.92,10.0,NW,20.7,25.3,N/A,,Clear,320,2013-06-17 05:55:00
11:55 PM,70.0,48.0,46,29.95,10.0,NW,19.6,-,N/A,,Scattered Clouds,310,2013-06-17 06:55:00